Starlink 31291

operational
NORAD ID: 59096 Int'l Des: 2024-041 Owner: SPXS Country: US Constellation: starlink
LEOCIRCULAR

关于 Starlink 31291

正在加载描述...

实时位置

正在加载3D地球...

即将过境

高度历史

Altitude vs Time

uPlot chart will show altitude changes over time

两行轨道根数

1 59096U 24041Y 25304.03774420 .00000181 00000-0 16107-4 0 9990
2 59096 43.0021 322.8394 0000887 252.5330 107.5425 15.27578909 94443
Epoch: Oct 31, 2025 • Age: 11 hours

当前状态

高度 495.8 km
速度 7.62 km/s
星下点 -43.13°S, 20.33°E
发射日期 Feb 29, 2024
运行时间 1.6 years
类型 internet

技术详情

分类 Payload
质量 730.00 kg
干质量 700.00 kg
总质量 730.00 kg
长度 0.30 m
直径 4.10 m
跨度 29.00 m
形状 Box + pan
制造商 SPXS
平台类型 Starlink V2M
阶段状态 In Orbit
所有者/国家 SPXS/US

大型星座

Loading constellations...